Location: Laura�t
(43.9341°N, 0.2497°E)
Time: 23:25:30
(UTC+00:00)

PSLV R/B - Pass Details

Date: 03 March 2021
Orbit: 567 x 598 km, 98.2° (Epoch: 17 April)

Event Time Altitude Azimuth Distance (km) Brightness Sun altitude
Rises 18:34:07 0° 15° (NNE) 2,804 7.3 -8.7°
Reaches altitude 10° 18:36:18 10° 18° (NNE) 1,896 6.4 -9.1°
Maximum altitude 18:40:23 69° 102° (ESE) 616 3.8 -9.8°
Drops below altitude 10° 18:44:25 10° 186° (S) 1,865 6.6 -10.6°
Sets 18:46:33 0° 189° (S) 2,755 7.5 -10.9°
